Content
SEND FEEDBACK

Daily
Averages
Monthly
Summary
United States of America

RAPID CITY, SOUTH DAKOTA


Home > North America > United States > South Dakota
Elevation: 963 meters     Latitude: 44 03N     Longitude: 103 04W

WEATHER
 
SELECT A DAY
Number of Records: 203,292;   Date Range: 1/1/95 - 10/21/14
 
SHARE

PRINT THIS DATA

[ ← Previous Day ]
WEATHER ALMANAC - 14 SEPTEMBER, 2013
[ Next Day → ]
[ °F ]   °C
Weather ElementAverageHighLow
Temperature18.7 °C26.7 °C (12:52 pm)13.9 °C (6:52 am)
Dewpoint14.3 °C16 °C (8:33 pm)12.8 °C (12:52 pm)
Humidity78.1 %100 % (7:14 am)42 % (12:52 pm)
Barometer1010.5 hPa1017.6 hPa (11:25 pm)1007.5 hPa (12:52 pm)
Wind Speed17.2 km/h44.4 km/h (3:52 pm)
Wind Gust62.9 km/h (4:52 pm)
Weather ElementAverage
Visibility14 km
Wind DirectionSSE (163.1 °)

Weather ElementTotal
Precipitation0.76 mm
Cooling Degree Days2 (Base 18.3)
Growing Degree Days10.3 (Base 10)
Averaged from 32 records on 14 September, 2013
WEATHER CONDITIONS BREAKOUT
WIND DIRECTION BREAKOUT
WEATHER BY HOUR - 14 SEPTEMBER, 2013
[ °F ]   °C
Local TimeTemperatureDewpointHumidityBarometerVisibilityWind DirectionWind SpeedGust SpeedPrecipitationEventsConditions
1:52 AM16.7 °C13.9 °C84 %1009.8 hPa16.1 kmSSE (160°)18.5 km/hOvercast
2:52 AM16.7 °C14.4 °C86 %1009.1 hPa16.1 kmSouth (170°)14.8 km/hOvercast
3:52 AM16.1 °C14.4 °C90 %1008.8 hPa16.1 kmSouth (180°)14.8 km/hOvercast
4:40 AM16 °C14 °C88 %1009.8 hPa16.1 kmSouth (190°)9.3 km/hPartly Cloudy
4:52 AM15.6 °C14.4 °C93 %1008.5 hPa16.1 kmSouth (190°)9.3 km/hPartly Cloudy
5:37 AM15 °C14 °C94 %1009.8 hPa14.5 kmESE (120°)11.1 km/hPartly Cloudy
5:52 AM15 °C13.9 °C93 %1008.5 hPa12.9 kmESE (120°)7.4 km/hPartly Cloudy
6:52 AM13.9 °C13.3 °C96 %1008.8 hPa6.4 kmSE (140°)5.6 km/hClear
7:04 AM14 °C13 °C94 %1009.8 hPa3.2 kmSSE (150°)9.3 km/hClear
7:14 AM14 °C14 °C100 %1009.8 hPa6.4 kmSSE (150°)5.6 km/hClear
7:28 AM14 °C13 °C94 %1009.8 hPa4 kmCalmClear
7:39 AM15 °C14 °C94 %1009.8 hPa4.8 kmCalmClear
7:52 AM16.1 °C15 °C93 %1008.8 hPa9.7 kmSouth (170°)5.6 km/hClear
8:52 AM20 °C15 °C73 %1008.5 hPa16.1 kmWNW (300°)11.1 km/hClear
9:52 AM23.3 °C14.4 °C57 %1008.1 hPa16.1 kmNNW (330°)13 km/hClear
10:52 AM25 °C13.3 °C48 %1007.8 hPa16.1 kmNNW (340°)13 km/hClear
11:52 AM25.6 °C13.3 °C46 %1007.8 hPa16.1 kmVariable11.1 km/hClear
12:52 PM26.7 °C12.8 °C42 %1007.5 hPa16.1 kmNorth (350°)14.8 km/h31.5 km/hPartly Cloudy
1:52 PM25.6 °C13.9 °C48 %1007.8 hPa16.1 kmNNE (20°)20.4 km/hScattered Clouds
2:52 PM26.7 °C14.4 °C47 %1007.8 hPa16.1 kmNNW (340°)38.9 km/h53.8 km/hClear
3:52 PM23.3 °C13.9 °C55 %1008.5 hPa16.1 kmNNW (330°)44.4 km/h61.2 km/hMostly Cloudy
4:52 PM22.8 °C13.9 °C57 %1009.5 hPa16.1 kmNNW (340°)42.6 km/h62.9 km/hPartly Cloudy
5:52 PM22.2 °C14.4 °C61 %1011.2 hPa16.1 kmNNW (340°)31.5 km/h46.3 km/hPartly Cloudy
6:52 PM20 °C15 °C73 %1011.9 hPa16.1 kmNNW (340°)31.5 km/h44.4 km/hPartly Cloudy
7:52 PM19.4 °C15.6 °C79 %1012.9 hPa16.1 kmNorth (350°)25.9 km/hMostly Cloudy
8:33 PM18 °C16 °C88 %1015.6 hPa16.1 kmNorth (10°)18.5 km/h0.25 mmRainLight Rain
8:40 PM18 °C16 °C88 %1015.9 hPa16.1 kmNorth (10°)16.7 km/h0.25 mmOvercast
8:52 PM17.8 °C15.6 °C87 %1014.2 hPa16.1 kmNorth (10°)20.4 km/h0.25 mmMostly Cloudy
9:52 PM17.2 °C15 °C87 %1014.6 hPa16.1 kmNNE (20°)20.4 km/hPartly Cloudy
10:52 PM16.7 °C15 °C90 %1014.9 hPa16.1 kmNorth (10°)18.5 km/hScattered Clouds
11:25 PM17 °C15 °C88 %1017.6 hPa16.1 kmNNE (20°)22.2 km/hMostly Cloudy
11:52 PM16.1 °C13.9 °C87 %1015.9 hPa16.1 kmNNE (20°)25.9 km/h38.9 km/hMostly Cloudy
Hourly data recorded from KRAP, located 0 kilometers away from Rapid City, South Dakota







STORIES FROM OUR PARTNERS